Location: Waco, TX
(31.5480°N, 97.1670°W)
Time: 02:11:29
(UTC-05:00)

ISS - Pass Details

Date: 05 May 2021
Orbit: 417 x 422 km, 51.6° (Epoch: 15 May)

Event Time Altitude Azimuth Distance (km) Brightness Sun altitude
Rises 00:59:25 0° 209° (SSW) 2,343 - -41.7°
Reaches altitude 10° 01:01:34 10° 202° (SSW) 1,485 - -41.8°
Maximum altitude 01:04:44 40° 131° (SE) 624 - -41.9°
Drops below altitude 10° 01:07:54 10° 60° (ENE) 1,495 - -41.9°
Sets 01:10:04 0° 53° (NE) 2,363 - -42.0°
